Time,TemperatureF,DewpointF,PressureIn,WindDirection,WindDirectionDegrees,WindSpeedMPH,WindSpeedGustMPH,Humidity,HourlyPrecipIn,Conditions,Clouds,dailyrainin,SoftwareType,DateUTC
2013-03-04 00:00:00,30.2,27.8,-100.00,NW,321,4.9,10.3,90,0.00,,,-99.99,HOBO +U30 +Weather +,2013-03-04 05:00:00,
2013-03-04 00:15:00,30.1,27.6,-100.00,NW,321,4.5,11.6,90,0.00,,,-99.99,HOBO +U30 +Weather +,2013-03-04 05:15:00,
2013-03-04 00:30:00,30.0,27.5,-100.00,NNW,330,3.4,12.1,90,0.00,,,-99.99,HOBO +U30 +Weather +,2013-03-04 05:30:00,
2013-03-04 00:45:00,29.8,27.4,-100.00,NW,326,4.3,9.2,90,0.00,,,-99.99,HOBO +U30 +Weather +,2013-03-04 05:45:00,
2013-03-04 01:00:00,29.7,27.1,-100.00,NNW,327,3.8,8.7,90,0.00,,,-99.99,HOBO +U30 +Weather +,2013-03-04 06:00:00,
2013-03-04 01:15:00,29.0,26.7,-100.00,NNW,329,4.3,9.6,90,0.00,,,-99.99,HOBO +U30 +Weather +,2013-03-04 06:15:00,
2013-03-04 01:30:00,28.6,26.3,-100.00,NW,323,4.5,11.2,90,0.00,,,-99.99,HOBO +U30 +Weather +,2013-03-04 06:30:00,
2013-03-04 01:45:00,28.4,26.0,-100.00,NW,323,5.8,13.2,90,0.00,,,-99.99,HOBO +U30 +Weather +,2013-03-04 06:45:00,
2013-03-04 02:00:00,27.9,25.5,-100.00,NW,324,5.4,14.1,90,0.00,,,-99.99,HOBO +U30 +Weather +,2013-03-04 07:00:00,
2013-03-04 02:15:00,27.8,25.5,-100.00,NW,321,5.4,11.6,90,0.00,,,-99.99,HOBO +U30 +Weather +,2013-03-04 07:15:00,
2013-03-04 02:30:00,27.6,25.2,-100.00,NW,320,6.3,13.6,90,0.00,,,-99.99,HOBO +U30 +Weather +,2013-03-04 07:30:00,
2013-03-04 02:45:00,27.5,25.0,-100.00,NW,314,6.7,12.1,90,0.00,,,-99.99,HOBO +U30 +Weather +,2013-03-04 07:45:00,
2013-03-04 03:00:00,27.2,24.7,-100.00,NW,316,5.8,12.1,90,0.00,,,-99.99,HOBO +U30 +Weather +,2013-03-04 08:00:00,
2013-03-04 03:15:00,26.5,24.2,-100.00,NW,313,6.3,11.2,90,0.00,,,-99.99,HOBO +U30 +Weather +,2013-03-04 08:15:00,
2013-03-04 03:30:00,26.3,23.9,-100.00,NW,317,6.7,13.6,90,0.00,,,-99.99,HOBO +U30 +Weather +,2013-03-04 08:30:00,
2013-03-04 03:45:00,26.1,23.7,-100.00,NW,317,6.7,13.6,90,0.00,,,-99.99,HOBO +U30 +Weather +,2013-03-04 08:45:00,
2013-03-04 04:00:00,26.0,23.6,-100.00,NW,317,6.3,13.0,90,0.00,,,-99.99,HOBO +U30 +Weather +,2013-03-04 09:00:00,
2013-03-04 04:15:00,26.2,23.8,-100.00,NW,319,6.3,13.6,90,0.00,,,-99.99,HOBO +U30 +Weather +,2013-03-04 09:15:00,
2013-03-04 04:30:00,26.2,23.8,-100.00,NW,317,6.7,15.9,90,0.00,,,-99.99,HOBO +U30 +Weather +,2013-03-04 09:30:00,
2013-03-04 04:45:00,26.3,23.8,-100.00,NW,314,7.2,13.0,90,0.00,,,-99.99,HOBO +U30 +Weather +,2013-03-04 09:45:00,
2013-03-04 05:00:00,26.2,23.6,-100.00,NW,313,7.8,16.6,89,0.00,,,-99.99,HOBO +U30 +Weather +,2013-03-04 10:00:00,
2013-03-04 05:15:00,26.1,23.5,-100.00,NW,314,7.2,13.6,89,0.00,,,-99.99,HOBO +U30 +Weather +,2013-03-04 10:15:00,
2013-03-04 05:30:00,26.0,23.3,-100.00,NW,319,6.7,12.5,89,0.00,,,-99.99,HOBO +U30 +Weather +,2013-03-04 10:30:00,
2013-03-04 05:45:00,25.2,22.6,-100.00,NW,316,7.4,17.0,89,0.00,,,-99.99,HOBO +U30 +Weather +,2013-03-04 10:45:00,
2013-03-04 06:00:00,24.9,22.2,-100.00,NW,317,8.3,15.4,89,0.00,,,-99.99,HOBO +U30 +Weather +,2013-03-04 11:00:00,
2013-03-04 06:15:00,24.8,22.1,-100.00,NW,316,7.8,15.0,89,0.00,,,-99.99,HOBO +U30 +Weather +,2013-03-04 11:15:00,
2013-03-04 06:30:00,24.7,22.0,-100.00,NW,317,7.8,14.5,89,0.00,,,-99.99,HOBO +U30 +Weather +,2013-03-04 11:30:00,
2013-03-04 06:45:00,24.9,22.1,-100.00,NW,316,7.8,15.9,89,0.00,,,-99.99,HOBO +U30 +Weather +,2013-03-04 11:45:00,
2013-03-04 07:00:00,26.0,22.8,-100.00,NW,324,6.3,13.6,87,0.00,,,-99.99,HOBO +U30 +Weather +,2013-03-04 12:00:00,
2013-03-04 07:15:00,27.0,23.6,-100.00,NW,321,6.7,12.5,87,0.00,,,-99.99,HOBO +U30 +Weather +,2013-03-04 12:15:00,
2013-03-04 07:30:00,27.7,24.0,-100.00,NW,317,7.2,15.0,85,0.00,,,-99.99,HOBO +U30 +Weather +,2013-03-04 12:30:00,
2013-03-04 07:45:00,28.3,24.3,-100.00,NW,316,7.2,21.3,84,0.00,,,-99.99,HOBO +U30 +Weather +,2013-03-04 12:45:00,
2013-03-04 08:00:00,29.0,25.0,-100.00,NW,319,6.7,13.6,84,0.00,,,-99.99,HOBO +U30 +Weather +,2013-03-04 13:00:00,
2013-03-04 08:15:00,28.3,24.8,-100.00,NW,319,7.4,18.6,86,0.00,,,-99.99,HOBO +U30 +Weather +,2013-03-04 13:15:00,
2013-03-04 08:30:00,28.8,25.2,-100.00,NW,317,6.7,15.0,86,0.00,,,-99.99,HOBO +U30 +Weather +,2013-03-04 13:30:00,
2013-03-04 08:45:00,29.6,26.0,-100.00,NW,316,7.4,14.1,86,0.00,,,-99.99,HOBO +U30 +Weather +,2013-03-04 13:45:00,
2013-03-04 09:00:00,30.0,26.3,-100.00,NW,316,7.8,13.6,86,0.00,,,-99.99,HOBO +U30 +Weather +,2013-03-04 14:00:00,
2013-03-04 09:15:00,30.2,26.4,-100.00,NW,313,8.3,14.5,85,0.00,,,-99.99,HOBO +U30 +Weather +,2013-03-04 14:15:00,
2013-03-04 09:30:00,31.3,27.4,-100.00,NW,316,7.4,14.5,85,0.00,,,-99.99,HOBO +U30 +Weather +,2013-03-04 14:30:00,
2013-03-04 09:45:00,32.9,28.3,-100.00,NW,316,8.3,16.6,82,0.00,,,-99.99,HOBO +U30 +Weather +,2013-03-04 14:45:00,
2013-03-04 10:00:00,34.0,29.1,-100.00,NW,312,7.8,17.9,81,0.00,,,-99.99,HOBO +U30 +Weather +,2013-03-04 15:00:00,
2013-03-04 10:15:00,35.1,30.3,-100.00,NW,312,8.3,16.6,82,0.00,,,-99.99,HOBO +U30 +Weather +,2013-03-04 15:15:00,
2013-03-04 10:30:00,35.5,30.1,-100.00,NW,317,7.4,15.0,80,0.00,,,-99.99,HOBO +U30 +Weather +,2013-03-04 15:30:00,
2013-03-04 10:45:00,35.4,30.1,-100.00,NW,317,7.8,17.0,80,0.00,,,-99.99,HOBO +U30 +Weather +,2013-03-04 15:45:00,
2013-03-04 11:00:00,37.0,31.1,-100.00,NW,320,7.2,17.4,79,0.00,,,-99.99,HOBO +U30 +Weather +,2013-03-04 16:00:00,
2013-03-04 11:15:00,37.1,31.6,-100.00,NW,314,7.8,14.5,80,0.00,,,-99.99,HOBO +U30 +Weather +,2013-03-04 16:15:00,
2013-03-04 11:30:00,36.7,31.2,-100.00,NW,317,8.7,17.4,80,0.00,,,-99.99,HOBO +U30 +Weather +,2013-03-04 16:30:00,
2013-03-04 11:45:00,36.6,31.2,-100.00,NW,316,9.6,21.3,80,0.00,,,-99.99,HOBO +U30 +Weather +,2013-03-04 16:45:00,
2013-03-04 12:00:00,35.7,30.2,-100.00,NW,320,7.4,16.1,80,0.00,,,-99.99,HOBO +U30 +Weather +,2013-03-04 17:00:00,
2013-03-04 12:15:00,35.9,30.4,-100.00,NW,320,7.2,17.0,80,0.00,,,-99.99,HOBO +U30 +Weather +,2013-03-04 17:15:00,
2013-03-04 12:30:00,37.3,31.5,-100.00,NW,320,6.7,15.9,79,0.00,,,-99.99,HOBO +U30 +Weather +,2013-03-04 17:30:00,
2013-03-04 12:45:00,39.8,32.8,-100.00,NW,316,7.2,13.6,75,0.00,,,-99.99,HOBO +U30 +Weather +,2013-03-04 17:45:00,
2013-03-04 13:00:00,36.7,30.8,-100.00,NW,316,7.8,16.1,79,0.00,,,-99.99,HOBO +U30 +Weather +,2013-03-04 18:00:00,
2013-03-04 13:15:00,37.9,32.1,-100.00,NW,314,7.8,16.1,79,0.00,,,-99.99,HOBO +U30 +Weather +,2013-03-04 18:15:00,
2013-03-04 13:30:00,37.5,31.5,-100.00,NW,320,6.7,13.6,78,0.00,,,-99.99,HOBO +U30 +Weather +,2013-03-04 18:30:00,
2013-03-04 13:45:00,37.8,31.8,-100.00,NW,313,5.8,13.6,78,0.00,,,-99.99,HOBO +U30 +Weather +,2013-03-04 18:45:00,
2013-03-04 14:00:00,37.7,31.9,-100.00,NW,310,7.4,14.1,79,0.00,,,-99.99,HOBO +U30 +Weather +,2013-03-04 19:00:00,
2013-03-04 14:15:00,38.7,32.6,-100.00,NW,317,6.3,15.9,78,0.00,,,-99.99,HOBO +U30 +Weather +,2013-03-04 19:15:00,
2013-03-04 14:30:00,37.9,31.7,-100.00,NW,317,7.8,17.0,78,0.00,,,-99.99,HOBO +U30 +Weather +,2013-03-04 19:30:00,
2013-03-04 14:45:00,37.4,31.4,-100.00,NW,323,7.4,18.6,78,0.00,,,-99.99,HOBO +U30 +Weather +,2013-03-04 19:45:00,
2013-03-04 15:00:00,36.5,30.8,-100.00,NW,326,7.2,18.6,79,0.00,,,-99.99,HOBO +U30 +Weather +,2013-03-04 20:00:00,
2013-03-04 15:15:00,35.9,31.0,-100.00,NNW,331,5.4,17.4,82,0.00,,,-99.99,HOBO +U30 +Weather +,2013-03-04 20:15:00,
2013-03-04 15:30:00,35.5,31.0,-100.00,NNW,327,5.8,13.0,83,0.00,,,-99.99,HOBO +U30 +Weather +,2013-03-04 20:30:00,
2013-03-04 15:45:00,35.2,30.8,-100.00,NW,324,5.4,13.0,83,0.00,,,-99.99,HOBO +U30 +Weather +,2013-03-04 20:45:00,
2013-03-04 16:00:00,35.2,30.7,-100.00,NW,320,6.7,12.1,83,0.00,,,-99.99,HOBO +U30 +Weather +,2013-03-04 21:00:00,
2013-03-04 16:15:00,35.1,30.3,-100.00,NW,323,5.8,12.1,82,0.00,,,-99.99,HOBO +U30 +Weather +,2013-03-04 21:15:00,
2013-03-04 16:30:00,35.2,30.3,-100.00,NW,320,5.8,12.5,82,0.00,,,-99.99,HOBO +U30 +Weather +,2013-03-04 21:30:00,
2013-03-04 16:45:00,34.9,30.3,-100.00,NW,324,5.8,13.6,83,0.00,,,-99.99,HOBO +U30 +Weather +,2013-03-04 21:45:00,
2013-03-04 17:00:00,34.3,29.9,-100.00,NW,321,5.8,14.5,83,0.00,,,-99.99,HOBO +U30 +Weather +,2013-03-04 22:00:00,
2013-03-04 17:15:00,33.7,29.5,-100.00,NW,319,5.8,12.1,84,0.00,,,-99.99,HOBO +U30 +Weather +,2013-03-04 22:15:00,
2013-03-04 17:30:00,33.0,29.2,-100.00,NW,321,8.3,19.9,85,0.00,,,-99.99,HOBO +U30 +Weather +,2013-03-04 22:30:00,
2013-03-04 17:45:00,32.7,28.9,-100.00,NW,323,6.7,18.6,85,0.00,,,-99.99,HOBO +U30 +Weather +,2013-03-04 22:45:00,
2013-03-04 18:00:00,32.2,28.8,-100.00,NW,320,6.3,12.1,87,0.00,,,-99.99,HOBO +U30 +Weather +,2013-03-04 23:00:00,
2013-03-04 18:15:00,31.9,28.4,-100.00,NW,319,7.2,15.4,86,0.00,,,-99.99,HOBO +U30 +Weather +,2013-03-04 23:15:00,
2013-03-04 18:30:00,31.6,28.2,-100.00,NW,317,6.7,14.1,87,0.00,,,-99.99,HOBO +U30 +Weather +,2013-03-04 23:30:00,
2013-03-04 18:45:00,31.6,27.9,-100.00,NW,326,6.3,19.0,85,0.00,,,-99.99,HOBO +U30 +Weather +,2013-03-04 23:45:00,
2013-03-04 19:00:00,31.4,27.8,-100.00,NW,326,5.8,13.0,86,0.00,,,-99.99,HOBO +U30 +Weather +,2013-03-05 00:00:00,
2013-03-04 19:15:00,31.1,27.7,-100.00,NW,323,6.7,15.4,86,0.00,,,-99.99,HOBO +U30 +Weather +,2013-03-05 00:15:00,
2013-03-04 19:30:00,30.9,27.6,-100.00,NW,326,5.4,13.0,87,0.00,,,-99.99,HOBO +U30 +Weather +,2013-03-05 00:30:00,
2013-03-04 19:45:00,31.0,27.5,-100.00,NW,326,6.3,13.2,86,0.00,,,-99.99,HOBO +U30 +Weather +,2013-03-05 00:45:00,
2013-03-04 20:00:00,31.2,27.6,-100.00,NW,321,6.3,14.5,86,0.00,,,-99.99,HOBO +U30 +Weather +,2013-03-05 01:00:00,
2013-03-04 20:15:00,31.2,27.7,-100.00,NW,317,7.2,13.0,86,0.00,,,-99.99,HOBO +U30 +Weather +,2013-03-05 01:15:00,
2013-03-04 20:30:00,31.2,27.6,-100.00,NNW,327,6.3,12.1,86,0.00,,,-99.99,HOBO +U30 +Weather +,2013-03-05 01:30:00,
2013-03-04 20:45:00,30.8,27.6,-100.00,NNW,330,5.4,10.1,87,0.00,,,-99.99,HOBO +U30 +Weather +,2013-03-05 01:45:00,
2013-03-04 21:00:00,30.7,27.5,-100.00,NW,326,6.3,15.4,87,0.00,,,-99.99,HOBO +U30 +Weather +,2013-03-05 02:00:00,
2013-03-04 21:15:00,30.4,27.0,-100.00,NW,324,6.3,13.6,87,0.00,,,-99.99,HOBO +U30 +Weather +,2013-03-05 02:15:00,
2013-03-04 21:30:00,30.1,26.8,-100.00,NNW,327,6.7,14.5,87,0.00,,,-99.99,HOBO +U30 +Weather +,2013-03-05 02:30:00,
2013-03-04 21:45:00,29.4,26.2,-100.00,NNW,329,5.4,11.2,87,0.00,,,-99.99,HOBO +U30 +Weather +,2013-03-05 02:45:00,
2013-03-04 22:00:00,29.7,26.4,-100.00,NW,326,5.8,13.6,87,0.00,,,-99.99,HOBO +U30 +Weather +,2013-03-05 03:00:00,
2013-03-04 22:15:00,29.0,25.9,-100.00,NNW,329,5.4,12.1,88,0.00,,,-99.99,HOBO +U30 +Weather +,2013-03-05 03:15:00,
2013-03-04 22:30:00,29.0,25.8,-100.00,NNW,329,6.3,13.2,87,0.00,,,-99.99,HOBO +U30 +Weather +,2013-03-05 03:30:00,
2013-03-04 22:45:00,28.8,25.6,-100.00,NNW,329,6.7,14.5,87,0.00,,,-99.99,HOBO +U30 +Weather +,2013-03-05 03:45:00,
2013-03-04 23:00:00,28.9,25.6,-100.00,NW,326,6.3,14.1,87,0.00,,,-99.99,HOBO +U30 +Weather +,2013-03-05 04:00:00,
2013-03-04 23:15:00,28.1,25.0,-100.00,NW,324,6.3,16.1,88,0.00,,,-99.99,HOBO +U30 +Weather +,2013-03-05 04:15:00,
2013-03-04 23:30:00,27.8,24.8,-100.00,NW,324,6.3,14.5,88,0.00,,,-99.99,HOBO +U30 +Weather +,2013-03-05 04:30:00,
2013-03-04 23:45:00,27.6,24.7,-100.00,NW,324,5.4,11.6,88,0.00,,,-99.99,HOBO +U30 +Weather +,2013-03-05 04:45:00,